Weather History for KELD - July, 2013

Change the Weather History Date:

Monday, July 29, 2013

  Actual Average Record
Temperature  
Mean Temperature 81 °F 82 °F  
Max Temperature 92 °F 93 °F 110 °F (1930)
Min Temperature 69 °F 71 °F 62 °F (1946)
Degree Days  
Heating Degree Days 0 0  
Month to date heating degree days 0 0  
Since 1 June heating degree days 0 0  
Since 1 July heating degree days 0 0  
Cooling Degree Days 16 17  
Month to date cooling degree days 428 484  
Year to date cooling degree days 1120 1191  
Since 1 June cooling degree days 842 880  
Growing Degree Days 30 (Base 50)    
Moisture  
Dew Point 72 °F    
Average Humidity 76    
Maximum Humidity 100    
Minimum Humidity 52    
Precipitation  
Precipitation T in 0.11 in 1.39 in (1972)
Month to date precipitation 4.56 3.35  
Year to date precipitation 25.82 31.23  
Snow  
Snow 0.00 in - - ()
Month to date snowfall 0.0  
Since 1 June snowfall 0.0  
Since 1 July snowfall 0.0  
Snow Depth 0.00 in    
Sea Level Pressure  
Sea Level Pressure 30.05 in    
Wind  
Wind Speed 4 mph (SSE)    
Max Wind Speed 12 mph    
Max Gust Speed 15 mph    
Visibility 9 miles    
Events      
T = Trace of Precipitation, MM = Missing Value Source: NWS Daily Summary

Daily Weather History Graph

Daily Weather History Graph

Search for Another Location

Airport or City:

Trip Planner

Search our weather history database for the weather conditions in past years. The results will help you decide how hot, cold, wet, or windy it might be!

Date:

Astronomy

Jul. 29, 2013 Rise Set
Actual Time 6:22 AM CDT 8:12 PM CDT
Civil Twilight 5:55 AM CDT 8:39 PM CDT
Nautical Twilight 5:22 AM CDT 9:12 PM CDT
Astronomical Twilight 4:47 AM CDT 9:47 PM CDT
Moon 12:00 AM CDT (7/29) 1:37 PM CDT (7/29)
Length of Visible Light 14h 44m
Length of Day
13h 50m
Waning Gibbous, 50% of the Moon is Illuminated
Jul 29
Waning Gibbous
Jul 29
Last Quarter
Aug 6
New
Aug 14
First Quarter
Aug 20
Full

Hourly Weather History & Observations

Time (CDT) Temp. Heat Index Dew Point Humidity Pressure Visibility Wind Dir Wind Speed Gust Speed Precip Events Conditions
12:53 AM 72.0 °F - 70.0 °F 93% 30.02 in 6.0 mi Calm Calm - N/A   Clear
1:53 AM 71.1 °F - 69.1 °F 93% 30.02 in 7.0 mi Calm Calm - N/A   Clear
2:53 AM 70.0 °F - 69.1 °F 97% 30.02 in 6.0 mi Calm Calm - N/A   Clear
3:53 AM 70.0 °F - 69.1 °F 97% 30.03 in 6.0 mi Calm Calm - N/A   Mostly Cloudy
4:53 AM 70.0 °F - 69.1 °F 97% 30.04 in 5.0 mi Calm Calm - N/A   Partly Cloudy
5:53 AM 69.1 °F - 68.0 °F 96% 30.05 in 7.0 mi Calm Calm - N/A   Partly Cloudy
6:53 AM 71.1 °F - 70.0 °F 96% 30.06 in 5.0 mi Calm Calm - N/A   Mostly Cloudy
7:53 AM 73.9 °F - 71.1 °F 91% 30.08 in 6.0 mi ESE 3.5 mph - N/A   Mostly Cloudy
8:53 AM 75.0 °F - 71.1 °F 87% 30.09 in 9.0 mi SE 6.9 mph - N/A   Mostly Cloudy
9:53 AM 77.0 °F - 72.0 °F 84% 30.09 in 10.0 mi SE 5.8 mph - N/A   Overcast
10:53 AM 82.9 °F 88.8 °F 73.0 °F 72% 30.09 in 10.0 mi SSE 9.2 mph - 0.00 in   Mostly Cloudy
11:53 AM 82.0 °F 87.9 °F 73.9 °F 76% 30.09 in 10.0 mi South 3.5 mph - N/A   Overcast
12:10 PM 84.2 °F 90.9 °F 73.4 °F 70% 30.10 in 10.0 mi Variable 4.6 mph - N/A   Overcast
12:53 PM 86.0 °F 93.8 °F 73.9 °F 67% 30.07 in 10.0 mi SE 6.9 mph - N/A   Clear
1:53 PM 87.1 °F 95.4 °F 73.9 °F 65% 30.06 in 10.0 mi SSE 8.1 mph - N/A   Mostly Cloudy
2:53 PM 89.1 °F 99.1 °F 75.0 °F 63% 30.05 in 10.0 mi ESE 8.1 mph - 0.00 in   Partly Cloudy
3:53 PM 91.0 °F 98.2 °F 72.0 °F 53% 30.04 in 10.0 mi SSW 9.2 mph - N/A   Scattered Clouds
4:53 PM 91.0 °F 99.3 °F 73.0 °F 55% 30.04 in 10.0 mi South 10.4 mph - N/A   Scattered Clouds
5:53 PM 90.0 °F 96.9 °F 72.0 °F 55% 30.03 in 10.0 mi South 6.9 mph - N/A   Clear
6:53 PM 88.0 °F 94.7 °F 72.0 °F 59% 30.03 in 10.0 mi SSE 5.8 mph - N/A   Clear
7:53 PM 84.0 °F 90.2 °F 73.0 °F 69% 30.03 in 10.0 mi SSE 4.6 mph - N/A   Clear
8:53 PM 80.1 °F 85.1 °F 75.0 °F 85% 30.04 in 10.0 mi Calm Calm - N/A   Clear
9:53 PM 79.0 °F - 75.0 °F 88% 30.05 in 10.0 mi Calm Calm - N/A   Clear
10:53 PM 79.0 °F - 73.9 °F 84% 30.05 in 10.0 mi SE 4.6 mph - N/A   Clear
11:53 PM 78.1 °F - 73.9 °F 87% 30.05 in 9.0 mi Calm Calm - N/A   Clear